Location: Chagrin Falls Park
(41.4139°N, 81.3865°W)
Time: 00:20:42
(UTC+00:00)

STARLINK-2647 - Pass Details

Date: 31 July 2021
Orbit: 546 x 548 km, 53.1° (Epoch: 20 September)

Event Time Altitude Azimuth Distance (km) Brightness Sun altitude
Rises 02:55:27 0° 296° (WNW) 2,718 8.3 -20.2°
Reaches altitude 10° 02:58:06 10° 280° (W) 1,820 6.9 -20.5°
Maximum altitude 03:01:12 21° 231° (SW) 1,263 5.4 -20.9°
Enters shadow 03:01:46 20° 219° (SW) 1,284 5.3 -21.0°
